Weather reports worldwide

Advertisment
Andernach, Germany (10520): temperature & dewpoint: 06.11.2019 17:00:00 - 12.11.2019 17:00:00 (CET)Andernach, Germany (10520): temperature 5cm & temperature -5cm: 06.11.2019 17:00:00 - 12.11.2019 17:00:00 (CET)Andernach, Germany (10520): temperature -20cm & temperature -100cm: 06.11.2019 17:00:00 - 12.11.2019 17:00:00 (CET)Andernach, Germany (10520): wind speed & gusts: 06.11.2019 17:00:00 - 12.11.2019 17:00:00 (CET)Andernach, Germany (10520): wind direction: 06.11.2019 17:00:00 - 12.11.2019 17:00:00 (CET)Andernach, Germany (10520): reduced air pressure: 06.11.2019 17:00:00 - 12.11.2019 17:00:00 (CET)Andernach, Germany (10520): visibility: 06.11.2019 17:00:00 - 12.11.2019 17:00:00 (CET)Andernach, Germany (10520): sunshine duration: 06.11.2019 17:00:00 - 12.11.2019 17:00:00 (CET)Andernach, Germany (10520): precipitation: 06.11.2019 17:00:00 - 12.11.2019 17:00:00 (CET)
Date & Time tt [°C] td [°C] tt 5cm [°C] tt -5cm [°C] tt -20cm [°C] tt -100cm [°C] ff [km/h] ff [kn] fx [km/h] fx [kn] dd ppp [hPa] vv [km] sd [min] rr [mm]
12.11.2019 17:00:00 6,8 2,3 6,0 7,0 6,8 11,7 12 7 31 17 SW 1003,2 67 4 0,0
12.11.2019 16:00:00 7,5 2,1 7,2 7,2 6,7 11,7 20 11 31 17 SW 1002,9 64 0 0,0
12.11.2019 15:00:00 7,5 2,5 7,5 7,4 6,6 11,7 19 11 41 22 SW 1002,8 56 4 0,0
12.11.2019 14:00:00 7,6 2,8 8,2 7,3 6,4 11,7 21 11 35 19 SW 1002,6 68 4 0,0
12.11.2019 13:00:00 6,8 3,7 6,7 7,0 6,3 11,8 16 9 35 19 WSW 1003,1 33 4 0,1
12.11.2019 12:00:00 7,5 3,8 8,0 6,3 6,2 11,8 21 11 37 20 SW 1003,7 28 8 0,0
12.11.2019 11:00:00 7,4 2,9 7,1 5,8 6,2 11,8 13 7 29 15 SSW 1004,1 49 0 0,0
12.11.2019 10:00:00 6,8 2,5 6,5 5,5 6,2 11,8 10 5 22 12 S 1004,4 50 2 0,0
12.11.2019 09:00:00 6,5 2,7 6,1 5,2 6,2 11,8 12 7 26 14 S 1004,8 45 5 0,0
12.11.2019 08:00:00 6,2 2,3 5,6 5,1 6,2 11,8 11 6 21 12 S 1004,9 53 0 0,0
12.11.2019 07:00:00 6,0 2,4 5,3 5,1 6,2 11,8 9 5 28 15 S 1005,0 47 0 0,0
12.11.2019 06:00:00 6,1 2,4 5,5 5,1 6,3 11,8 13 7 26 14 S 1005,4 46 0 0,0
12.11.2019 05:00:00 5,8 2,6 5,2 5,0 6,3 11,8 10 5 24 13 S 1005,6 45 0 0,0
12.11.2019 04:00:00 5,8 2,4 4,8 4,9 6,4 11,8 14 7 25 13 S 1005,9 59 0 0,0
12.11.2019 03:00:00 6,0 2,4 4,7 4,9 6,4 11,9 15 8 23 12 SSW 1005,9 58 0 0,0
12.11.2019 02:00:00 5,7 3,1 3,6 5,1 6,5 11,9 11 6 22 12 SSW 1005,6 51 0 0,0
12.11.2019 01:00:00 5,5 3,7 3,8 5,3 6,5 11,9 10 5 16 9 SW 1005,8 50 0 0,0
12.11.2019 00:00:00 5,7 3,9 4,7 5,4 6,6 11,9 5 3 14 7 SW 1005,8 56 0 0,0
11.11.2019 23:00:00 4,9 4,2 4,2 5,5 6,6 11,9 2 1 6 3 NE 1005,6 22 0 0,0
11.11.2019 22:00:00 4,9 4,1 3,5 5,6 6,6 11,9 3 2 11 6 SW 1005,4 23 0 0,0
11.11.2019 21:00:00 4,6 3,7 4,3 5,7 6,7 11,9 9 5 13 7 E 1005,2 15 0 0,1
11.11.2019 20:00:00 4,6 3,6 4,2 5,7 6,7 11,9 7 4 13 7 SE 1005,0 9 0 0,3
11.11.2019 19:00:00 4,8 2,6 4,2 5,8 6,7 11,9 11 6 22 12 ESE 1005,1 15 0 0,0
11.11.2019 18:00:00 5,0 2,4 4,8 6,0 6,7 12,0 13 7 26 14 SE 1004,6 22 0 0,0
11.11.2019 17:00:00 4,9 2,5 4,7 6,3 6,7 12,0 18 10 29 16 SE 1004,7 18 0 0,0
11.11.2019 16:00:00 5,1 2,4 5,0 6,7 6,6 12,0 19 10 39 21 SE 1005,1 19 0 0,0
11.11.2019 15:00:00 5,7 2,4 5,9 7,1 6,4 12,0 16 9 29 16 SE 1006,0 28 0 0,0
11.11.2019 14:00:00 6,8 2,4 7,1 7,3 6,3 12,0 22 12 38 20 S 1007,2 47 3 0,0
11.11.2019 13:00:00 6,4 2,7 7,9 6,9 6,1 12,0 16 9 31 17 SE 1007,7 38 20 0,0
11.11.2019 12:00:00 5,7 2,5 6,7 6,4 6,0 12,0 18 10 30 16 SE 1008,9 39 2 0,0
11.11.2019 11:00:00 6,0 2,3 7,0 5,7 5,9 12,0 15 8 31 17 SSE 1009,8 35 8 0,0
11.11.2019 10:00:00 5,3 2,2 5,7 5,2 5,9 12,0 14 8 27 14 SSE 1011,0 37 3 0,0
11.11.2019 09:00:00 4,5 2,1 5,0 4,6 5,9 12,1 8 4 16 9 SE 1011,7 28 0 0,0
11.11.2019 08:00:00 3,5 1,7 3,4 4,4 6,0 12,1 9 5 16 9 SE 1012,3 23 0 0,0
11.11.2019 07:00:00 3,1 1,3 3,0 4,4 6,0 12,1 8 4 11 6 ESE 1013,5 29 0 0,0
11.11.2019 06:00:00 2,9 1,4 2,8 4,5 6,0 12,1 7 4 14 7 SE 1014,3 26 0 0,0
11.11.2019 05:00:00 2,9 1,3 2,8 4,6 6,1 12,1 10 5 16 9 SE 1014,8 23 0 0,0
11.11.2019 04:00:00 3,0 1,5 3,0 4,7 6,1 12,1 11 6 22 12 SE 1015,1 22 0 0,0
11.11.2019 03:00:00 3,3 2,0 3,3 4,7 6,1 12,1 12 7 17 9 ESE 1015,5 17 0 0,0
11.11.2019 02:00:00 3,4 2,1 3,4 4,8 6,1 12,1 9 5 19 10 ESE 1016,1 15 0 0,0
11.11.2019 01:00:00 3,6 2,1 3,5 4,8 6,2 12,1 11 6 18 10 S 1016,6 16 0 0,0
11.11.2019 00:00:00 3,2 2,0 3,3 4,9 6,2 12,1 5 3 10 5 SSW 1016,5 21 0 0,0
10.11.2019 23:00:00 3,3 2,0 3,4 5,0 6,2 12,2 4 2 11 6 SSW 1016,4 18 0 0,0
10.11.2019 22:00:00 3,8 2,8 3,8 5,0 6,2 12,2 5 3 11 6 S 1016,8 13 0 0,0
10.11.2019 21:00:00 3,9 2,8 3,8 5,1 6,2 12,2 5 3 11 6 ESE 1017,0 9 0 0,0
10.11.2019 20:00:00 3,8 2,6 3,7 5,1 6,2 12,2 6 3 12 6 SSE 1016,8 17 0 0,0
10.11.2019 19:00:00 3,7 2,4 3,7 5,2 6,2 12,2 5 3 13 7 SSE 1016,9 17 0 0,0
10.11.2019 18:00:00 3,7 2,6 3,7 5,3 6,1 12,2 4 2 14 8 S 1016,7 17 0 0,0
10.11.2019 17:00:00 3,7 2,7 3,8 5,5 6,1 12,2 4 2 11 6 ESE 1016,0 20 0 0,0
10.11.2019 16:00:00 3,6 2,5 4,0 5,7 6,0 12,2 7 4 13 7 ESE 1015,4 18 0 0,0
10.11.2019 15:00:00 3,4 2,2 4,1 5,7 5,9 12,2 6 3 11 6 ESE 1014,8 15 0 0,0
10.11.2019 14:00:00 3,3 1,7 4,4 5,6 5,7 12,2 5 3 14 8 ESE 1014,6 17 0 0,0
10.11.2019 13:00:00 3,0 1,5 4,3 5,1 5,6 12,2 7 4 11 6 E 1014,3 18 0 0,0
10.11.2019 12:00:00 2,8 1,9 4,0 4,7 5,6 12,3 7 4 13 7 E 1014,3 14 0 0,0
10.11.2019 11:00:00 2,2 1,2 3,1 4,3 5,5 12,3 7 4 11 6 E 1014,1 11 0 0,0
10.11.2019 10:00:00 2,0 1,4 2,7 3,8 5,6 12,3 6 4 11 6 S 1013,6 6 0 0,0
10.11.2019 09:00:00 1,7 1,4 2,1 3,4 5,6 12,3 5 3 10 6 SE 1013,0 7 0 0,0
10.11.2019 08:00:00 1,6 1,6 1,9 3,2 5,7 12,3 5 3 10 5 E 1012,4 3,1 0 0,0
10.11.2019 07:00:00 1,6 1,6 1,8 3,0 5,7 12,3 0 0 9 5 N 1011,6 0,6 0 0,0
10.11.2019 06:00:00 1,3 1,3 1,4 2,9 5,9 12,3 4 2 13 7 S 1010,9 0,3 0 0,0
10.11.2019 05:00:00 1,1 1,0 1,1 2,9 6,0 12,3 8 4 12 7 SSE 1010,6 0,2 0 0,0
10.11.2019 04:00:00 1,0 0,9 0,1 2,9 6,2 12,3 4 2 9 5 SSW 1010,2 0,3 0 0,0
10.11.2019 03:00:00 -0,3 -0,5 -1,6 3,1 6,3 12,3 0 0 6 3 N 1010,2 6 0 0,0
10.11.2019 02:00:00 -0,8 -1,0 -3,2 3,3 6,5 12,3 4 2 9 5 ESE 1009,9 5 0 0,0
10.11.2019 01:00:00 0,1 -0,3 -2,3 3,6 6,6 12,4 4 2 8 4 S 1009,8 8 0 0,0
10.11.2019 00:00:00 1,3 0,7 -2,5 4,2 6,7 12,4 3 2 7 4 SSW 1009,6 8 0 0,0
09.11.2019 23:00:00 3,3 1,7 0,7 4,7 6,8 12,4 4 2 9 5 SSE 1009,6 34 0 0,0
09.11.2019 22:00:00 3,5 1,9 2,1 4,9 6,9 12,4 6 3 9 5 ESE 1009,5 32 0 0,0
09.11.2019 21:00:00 3,0 2,2 1,1 5,2 7,0 12,4 3 2 9 5 ESE 1009,6 21 0 0,0
09.11.2019 20:00:00 4,8 2,8 4,1 5,6 7,0 12,4 8 4 17 9 SW 1009,7 16 0 0,0
09.11.2019 19:00:00 5,2 3,4 4,6 5,8 7,0 12,4 6 3 10 6 WSW 1009,8 27 0 0,0
09.11.2019 18:00:00 5,1 3,1 2,3 6,3 7,0 12,4 5 3 17 9 SW 1009,7 41 0 0,0
09.11.2019 17:00:00 6,0 3,1 5,0 7,0 6,9 12,4 13 7 23 13 SSW 1009,7 38 19 0,0
09.11.2019 16:00:00 7,0 3,2 7,2 7,2 6,7 12,4 14 8 23 12 SSW 1009,5 43 9 0,0
09.11.2019 15:00:00 7,3 2,9 7,3 7,3 6,5 12,4 16 9 24 13 SW 1009,8 52 5 0,0
09.11.2019 14:00:00 7,7 3,2 9,2 7,0 6,3 12,4 13 7 24 13 SSW 1010,0 33 14 0,0
09.11.2019 13:00:00 7,5 3,0 9,3 6,0 6,2 12,4 17 9 35 19 SW 1010,3 34 9 0,0
09.11.2019 12:00:00 6,1 3,0 5,9 5,3 6,1 12,4 15 8 29 16 SSW 1010,5 40 0 0,0
09.11.2019 11:00:00 5,2 2,9 5,1 4,3 6,1 12,5 8 5 18 10 S 1010,7 31 0 0,0
09.11.2019 10:00:00 4,1 2,6 4,1 3,5 6,2 12,5 3 2 6 3 E 1010,8 27 0 0,0
09.11.2019 09:00:00 1,8 1,4 1,7 3,1 6,4 12,5 2 1 8 4 SE 1011,0 9 34 0,0
09.11.2019 08:00:00 0,2 0,1 -1,2 3,1 6,5 12,5 4 2 7 4 SSW 1010,8 7 0 0,0
09.11.2019 07:00:00 0,4 0,4 -0,5 3,2 6,7 12,5 4 2 6 3 SSW 1010,4 0,2 0 0,0
09.11.2019 06:00:00 0,5 0,4 -2,4 3,4 6,8 12,5 5 3 8 4 S 1010,5 7 0 0,0
09.11.2019 05:00:00 1,2 0,9 -1,1 3,8 7,0 12,5 3 2 4 2 W 1010,1 2,5 0 0,0
09.11.2019 04:00:00 2,0 2,0 1,0 4,0 7,1 12,5 2 1 7 4 SE 1010,0 0,1 0 0,0
09.11.2019 03:00:00 2,3 1,9 -0,1 4,4 7,3 12,5 3 2 5 3 W 1009,6 7 0 0,0
09.11.2019 02:00:00 2,6 2,2 0,6 4,7 7,4 12,5 2 1 6 3 WNW 1009,7 9 0 0,0
09.11.2019 01:00:00 3,3 3,0 0,8 5,1 7,6 12,5 3 1 9 5 SSW 1009,3 12 0 0,0
09.11.2019 00:00:00 3,5 3,0 2,2 5,3 7,7 12,5 4 2 6 4 W 1009,0 9 0 0,0
08.11.2019 23:00:00 3,8 3,5 1,7 5,7 7,8 12,5 3 2 6 3 WSW 1008,8 11 0 0,0
08.11.2019 22:00:00 4,5 4,3 1,9 6,2 7,8 12,5 3 1 6 3 S 1008,6 8 0 0,0
08.11.2019 21:00:00 5,6 5,1 3,5 6,6 7,9 12,5 2 1 6 4 WSW 1008,2 11 0 0,0
08.11.2019 20:00:00 6,2 5,6 4,6 7,0 7,9 12,5 3 1 6 3 WNW 1008,0 16 0 0,0
08.11.2019 19:00:00 6,2 5,8 4,7 7,3 7,9 12,5 2 1 4 2 SSW 1007,7 12 0 0,0
08.11.2019 18:00:00 6,6 5,8 5,6 7,6 7,8 12,5 0 0 4 2 N 1007,4 15 0 0,0
08.11.2019 17:00:00 7,3 5,7 5,4 8,1 7,6 12,6 0 0 5 3 N 1006,8 22 0 0,0
08.11.2019 16:00:00 8,0 5,1 7,3 8,3 7,4 12,6 4 2 5 3 S 1006,6 35 0 0,0
08.11.2019 15:00:00 8,1 5,2 7,5 8,2 7,2 12,6 0 0 8 4 N 1006,4 35 0 0,0
08.11.2019 14:00:00 7,5 4,8 7,7 7,9 6,9 12,6 5 3 10 5 SSW 1006,1 28 0 0,0
08.11.2019 13:00:00 6,7 4,4 7,4 7,1 6,8 12,6 3 2 7 4 SSE 1006,3 26 32 0,0
08.11.2019 12:00:00 5,6 4,0 6,5 5,9 6,7 12,6 4 2 9 5 S 1006,9 19 7 0,0
08.11.2019 11:00:00 4,5 4,1 5,9 4,9 6,7 12,6 3 2 6 4 SE 1007,4 13 3 0,0
08.11.2019 10:00:00 3,2 3,1 3,7 3,9 6,8 12,6 3 1 9 5 SSE 1007,1 2,5 0 0,0
08.11.2019 09:00:00 2,2 2,0 2,2 3,4 6,9 12,6 4 2 6 4 S 1007,1 7 0 0,0
08.11.2019 08:00:00 1,2 1,2 0,0 3,4 7,1 12,6 0 0 6 3 N 1007,0 2,9 0 0,0
08.11.2019 07:00:00 1,2 1,2 0,0 3,5 7,3 12,6 4 2 9 5 SSW 1006,3 13 0 0,0
08.11.2019 06:00:00 0,9 0,9 -0,1 3,6 7,5 12,6 5 3 8 4 SSW 1006,1 0,2 0 0,0
08.11.2019 05:00:00 1,4 1,4 -0,3 3,6 7,7 12,6 3 1 8 4 W 1006,0 0,3 0 0,0
08.11.2019 04:00:00 0,3 0,1 -2,3 3,8 7,9 12,6 4 2 12 6 SSE 1005,7 15 0 0,0
08.11.2019 03:00:00 0,8 0,7 -1,6 4,0 8,2 12,6 4 2 8 5 SSW 1005,9 16 0 0,0
08.11.2019 02:00:00 1,7 1,6 -2,3 4,4 8,4 12,6 3 2 7 4 WNW 1005,8 19 0 0,0
08.11.2019 01:00:00 3,2 3,0 -0,3 4,9 8,7 12,6 3 2 6 4 W 1005,8 26 0 0,0
08.11.2019 00:00:00 2,6 2,1 -0,3 5,4 8,9 12,6 0 0 8 4 N 1005,6 8 0 0,0
07.11.2019 23:00:00 2,8 2,6 -0,3 5,8 9,1 12,6 5 3 9 5 SSW 1005,0 13 0 0,0
07.11.2019 22:00:00 4,3 3,8 1,1 6,6 9,3 12,6 6 3 9 5 WNW 1004,5 21 0 0,0
07.11.2019 21:00:00 5,2 4,6 1,4 7,4 9,5 12,6 4 2 10 5 WNW 1004,0 24 0 0,0
07.11.2019 20:00:00 6,7 4,9 4,7 8,1 9,5 12,6 7 4 11 6 SE 1003,2 40 0 0,0
07.11.2019 19:00:00 8,2 5,3 6,2 8,6 9,6 12,6 10 5 13 7 SE 1002,7 47 0 0,0
07.11.2019 18:00:00 8,4 6,2 6,9 9,0 9,6 12,6 3 2 14 8 NE 1001,7 59 0 0,0
07.11.2019 17:00:00 9,7 6,3 7,6 9,7 9,6 12,6 8 5 23 12 WSW 1000,2 65 2 0,2
07.11.2019 16:00:00 10,0 7,0 9,1 9,7 9,5 12,6 7 4 24 13 SSE 998,8 71 0 0,0
07.11.2019 15:00:00 9,5 6,9 8,9 9,5 9,5 12,6 14 8 29 15 S 998,5 75 0 0,0
07.11.2019 14:00:00 9,2 6,0 8,2 9,5 9,4 12,6 14 7 31 17 S 998,5 17 0 0,1
07.11.2019 13:00:00 9,3 6,7 8,5 9,5 9,3 12,6 11 6 32 18 S 998,3 40 0 0,7
07.11.2019 12:00:00 9,7 7,5 8,9 9,4 9,3 12,7 15 8 29 16 SE 998,3 14 0 0,5
07.11.2019 11:00:00 10,3 7,0 9,4 9,3 9,2 12,7 15 8 32 17 SSE 998,6 40 0 0,0
07.11.2019 10:00:00 10,1 7,4 9,6 8,7 9,2 12,7 13 7 19 10 SE 998,8 46 7 0,0
07.11.2019 09:00:00 8,9 7,4 8,2 8,3 9,3 12,7 8 5 16 8 SE 999,4 32 0 0,0
07.11.2019 08:00:00 8,5 7,0 7,6 8,2 9,3 12,7 5 3 11 6 E 999,6 29 0 0,0
07.11.2019 07:00:00 8,0 7,0 7,1 8,3 9,4 12,7 4 2 12 7 SE 1000,1 26 0 0,0
07.11.2019 06:00:00 8,1 7,4 7,5 8,3 9,4 12,7 6 3 11 6 ESE 1000,6 26 0 0,0
07.11.2019 05:00:00 7,9 7,6 7,5 8,3 9,5 12,7 2 1 10 5 E 1000,9 8 0 0,0
07.11.2019 04:00:00 7,3 7,0 6,5 8,5 9,6 12,7 9 5 11 6 E 1001,6 6 0 0,0
07.11.2019 03:00:00 7,7 7,3 7,6 8,5 9,6 12,7 2 1 7 4 ENE 1002,1 7 0 0,0
07.11.2019 02:00:00 7,9 7,2 7,3 8,6 9,7 12,7 6 3 10 5 SW 1002,5 16 0 0,0
07.11.2019 01:00:00 7,8 7,6 7,0 8,9 9,8 12,7 5 3 7 4 WSW 1002,8 7 0 0,1
07.11.2019 00:00:00 8,3 7,7 7,8 9,1 9,8 12,7 3 2 12 7 W 1003,3 9 0 2,5
06.11.2019 23:00:00 8,5 8,1 8,3 9,3 9,9 12,7 5 3 9 5 NW 1003,6 3,8 0 2,5
06.11.2019 22:00:00 8,8 8,2 8,6 9,4 9,9 12,7 4 2 9 5 NNW 1003,6 3,5 0 0,4
06.11.2019 21:00:00 8,8 8,4 8,5 9,4 9,9 12,7 5 3 8 4 NW 1003,7 3,8 0 1,3
06.11.2019 20:00:00 8,8 8,7 8,6 9,5 9,9 12,7 4 2 7 4 SSW 1003,8 6 0 0,1
06.11.2019 19:00:00 9,0 8,8 8,7 9,6 9,9 12,7 4 2 5 3 SSW 1003,8 2,9 0 0,4
06.11.2019 18:00:00 9,0 8,8 8,7 9,8 9,9 12,7 2 1 7 4 WSW 1003,7 3,3 0 2,2
06.11.2019 17:00:00 9,2 8,6 9,0 10,0 9,9 12,7 3 2 8 4 SSW 1003,4 6 0 2,5

tt = temperature
td = dewpoint
tt 5cm = temperature 5cm
tt -5cm = temperature -5cm
tt -20cm = temperature -20cm
tt -100cm = temperature -100cm
ff = wind speed
fx = gusts
dd = wind direction
ppp = reduced air pressure
vv = visibility
sd = sunshine duration
rr = precipitation

Next stations